Terug naar catalogus

MONITOR-E/SL-19

ActiefWetenschapSSO
NORAD 27840·PAYLOAD·🇷🇺 Russia

Gelanceerd Jun 30, 2003 vanaf Plesetsk Cosmodrome

Loading…

Volgende Passages (komende 24 uur)

TLE

VersSource: Space-Track

Epoch: Sep 14, 2026, 08:57 UTC

1 27840U 03031A   26257.37345905  .00000046  00000-0  28042-4 0  9996
2 27840  98.6410 237.9526 0098031  75.8191 285.3864 14.39841804218837

Volg MONITOR-E/SL-19 in realtime met AllMySat

Download on the App Store